Location: D�pe
(52.6057°N, 8.1808°E)
Time: 14:34:32
(UTC+00:00)

Cosmos 2263 Rocket - Pass Details

Date: 29 October 2020
Orbit: 822 x 850 km, 71.0° (Epoch: 28 November)

Event Time Altitude Azimuth Distance (km) Brightness Sun altitude
Rises 20:20:23 0° 321° (NW) 3,424 6.2 -38.6°
Reaches altitude 10° 20:23:23 10° 306° (NW) 2,485 5.3 -39.0°
Enters shadow 20:26:54 21° 268° (W) 1,840 4.3 -39.4°
